Regional Weather Roundup
Issued by NWS Charleston, SC

Current Version | Previous Version | Text Only | Print | Product List | Glossary Off
Versions: 1 2 3 4 5 6 7 8 9 10 11 12 13 14 15 16 17 18 19 20 21 22 23 24 25 26 27 28 29 30 31 32 33 34 35 36 37 38 39 40 41 42 43 44 45 46 47 48 49 50
000 ASUS42 KCHS 091827 RWRCHS REGIONAL WEATHER ROUNDUP NATIONAL WEATHER SERVICE CHARLESTON SC 100 PM EST FRI DEC 09 2016 NOTE: "FAIR" INDICATES FEW OR NO CLOUDS BELOW 12,000 FEET WITH NO SIGNIFICANT WEATHER AND/OR OBSTRUCTIONS TO VISIBILITY. NOT ALL STATIONS ARE QUALITY CONTROLLED. USE DATA WITH CAUTION... ESPECIALLY DEWPOINT OBSERVATIONS. SCZ027-030-031-034>040-042>050-091900- ...SOUTHEAST SOUTH CAROLINA... CITY SKY/WX TMP DP RH WIND PRES REMARKS N CHARLESTON SUNNY 49 20 31 N13 30.38F 6HR MIN TEMP: 35; 6HR MAX TEMP: 50; WATERFRONT PRK N/A 47 27 45 N12 30.38F MOUNT PLEASANT FAIR 48 23 37 NW7 30.38F JOHNS ISLAND FAIR 50 21 32 N10 30.37F PINOPOLIS N/A 43 25 49 N8 30.33F MONCKS CORNER FAIR 45 18 33 N6 30.38F SUMMERVILLE FAIR 46 23 39 N7 30.39F BEAUFORT MCAS SUNNY 52 19 27 N14 30.39F 6HR MIN TEMP: 39; 6HR MAX TEMP: 52; BEAUFORT ARPT FAIR 50 21 32 N13 30.37F HILTON HEAD IS SUNNY 54 23 30 N12 30.39F WALTERBORO CLEAR 50 18 27 NW5 30.39F ALLENDALE FAIR 48 18 29 W5 30.38F ...SOUTHERN MIDLANDS AND PEE DEE... CITY SKY/WX TMP DP RH WIND PRES REMARKS GEORGETOWN NOT AVBL KINGSTREE FAIR 45 18 33 N7 30.38F ORANGEBURG SUNNY 45 17 32 NW7 30.39F 6HR MIN TEMP: 34; 6HR MAX TEMP: 46; BARNWELL NOT AVBL AIKEN FAIR 45 18 33 N8 30.41F MANNING FAIR 45 18 33 N9 30.39F COLUMBIA SUNNY 46 18 32 NW8 30.39F 6HR MIN TEMP: 34; 6HR MAX TEMP: 47; SUMTER SUNNY 46 16 29 NW10 30.37F 6HR MIN TEMP: 31; 6HR MAX TEMP: 46; FLORENCE SUNNY 43 18 36 N9 30.40F 6HR MIN TEMP: 31; 6HR MAX TEMP: 45; MYRTLE BEACH SUNNY 45 19 36 N12 30.40S N MYRTLE BEACH SUNNY 45 21 38 VRB7 30.36F 6HR MIN TEMP: 33; 6HR MAX TEMP: 46; $$ GAZ063-065-086>088-099>101-113>116-118-119-134>141-150-091900- ...SOUTHEAST GEORGIA... CITY SKY/WX TMP DP RH WIND PRES REMARKS SAVANNAH ARPT SUNNY 52 20 28 NW9 30.39F 6HR MIN TEMP: 38; 6HR MAX TEMP: 52; HUNTER AAF SUNNY 53 28 37 N8 30.36F 6HR MIN TEMP: 39; 6HR MAX TEMP: 53; FORT STEWART SUNNY 52 21 30 VRB5 30.37F 6HR MIN TEMP: 37; 6HR MAX TEMP: 52; STATESBORO SUNNY 49 23 35 CALM 30.38F SYLVANIA CLEAR N/A N/A N/A N7 30.39F CLAXTON FAIR 50 24 36 NW5 30.38F ...CSRA...CENTRAL AND FAR SOUTHEAST GEORGIA... CITY SKY/WX TMP DP RH WIND PRES REMARKS THOMSON SUNNY 47 23 38 CALM 30.44F AUGUSTA-BUSH SUNNY 49 14 24 MISG 30.40F 6HR MIN TEMP: 28; 6HR MAX TEMP: 49; AUGUSTA-DANIEL SUNNY 47 15 27 NE6 30.40F SWAINSBORO FAIR 46 21 36 NW7 30.39F VIDALIA SUNNY 50 28 43 N6 30.38F EASTMAN FAIR 49 -13 7 CALM 30.42F HAZLEHURST FAIR 51 21 31 NE3 30.37F ALMA SUNNY 51 23 33 N8 30.39F 6HR MIN TEMP: 37; 6HR MAX TEMP: 51; WAYCROSS SUNNY 55 26 33 NE7 30.37F JESUP FAIR 52 30 43 N6 30.38F BAXLEY FAIR 50 28 43 NE3 30.38F BRUNSWICK SUNNY 54 30 40 NW7 30.37F SAINT SIMONS SUNNY 54 22 28 N9 30.37F 6HR MIN TEMP: 42; 6HR MAX TEMP: 54; $$ SCZ027-028-034-036>038-045-046-048>050-GAZ119-141-091900- ...LAKE AND SUPPLEMENTAL COASTAL OBSERVATIONS... STATION/POSITION TIME TEMP WIND PRES WAVE SWELL AIR SEA DIR/SP/G HT/PER HT/PER/DIR (UTC) (F) (DEG/KT/KT) (MB) (FT/S) (FT/S/D) WINYAH BAY 1745 44 330/ 7 1028.0F LAKE MURRAY 1730 42 310/ 1/ 7 1029.1F ACE BASIN NERRS 1745 49 330/ 4 1029.0S FORT PULASKI 1800 49 61 10/ 6/ 10 1028.8 SAPELO ISLAND 1800 53 20/ 7 1028.0 $$ ANZ835-935-AMZ111-154-330-350-352-354-370-450-454-472-091900- ...C-MAN AND BUOY OBSERVATIONS... STATION/POSITION TIME TEMP WIND PRES WAVE SWELL AIR SEA DIR/SP/G HT/PER HT/PER/DIR (UTC) (F) (DEG/KT/KT) (MB) (FT/S) (FT/S/D) BUOY 41004 1750 48 72 360/ 16/ 21 1027.3F 5/ 7 2/ 40/11 BUOY 41008 1750 49 63 10/ 14/ 17 1028.1F 4/ 6 2/ 40/11 FOLLY BEACH CMAN 1800 48 350/ 11/ 14 1029.1F CAPERS NEARSHORE 1708 45 60 360/ 10/ 16 1028.3F FRIPP NEARSHORE 1808 47 60 360/ 10/ 14 1028.3F STATION/POSITION TIME TEMP WIND PRES WAVE SWELL AIR SEA DIR/SP/G HT/PER HT/PER/DIR (UTC) (F) (DEG/KT/KT) (MB) (FT/S) (FT/S/D) 5E ST. MARYS GA 1800 65 N/A 4/ 6 FRYING PAN BUOY 1810 45 73 340/ 14/ 21 1027.2 BUOY 41025 1750 42 76 340/ 17/ 21 1025.7F 5/ 8 3/ 50/ 8 CAPE LOOKOUT NC 1800 41 330/ 11/ 14 1026.7F BUOY 41002 1750 61 73 350/ 17/ 23 1022.6F 6/ 7 2/ 60/12 BUOY 41010 NOT AVBL ST AUGUSTINE FL 1800 53 65 360/ 20/ 23 1027.7F $$

USA.gov is the U.S. government's official web portal to all federal, state and local government web resources and services.